Simultaneous Nadir Overpasses (SNOs) Predictions

Prediction of SNOs between LANDSAT-8 and NOAA-19 Satellite Orbit:

Table of predicted SNOs for the next 14.0 days since TLE Epoch: 3/24/2018
Index Date (LANDSAT-8) Time (LANDSAT-8) Lat,Lon (LANDSAT-8) SZA (LANDSAT-8 ) Date (NOAA-19) Time (NOAA-19) Lat,Lon (NOAA-19) SZA (NOAA-19 ) Distance(km) Time Diff (sec)
1 03/24/2018 05:04:18 77.38, 116.65 76.16 03/24/2018 05:03:32 77.34, 116.66 76.11 4.22 46
2 03/24/2018 05:53:47 -77.30, -76.03 103.95 03/24/2018 05:54:27 -77.33, -75.98 103.92 2.87 40
3 03/26/2018 10:38:02 -77.38,-146.81 104.72 03/26/2018 10:37:06 -77.38,-146.84 104.73 0.78 56
4 03/26/2018 11:27:29 77.32, 20.61 75.20 03/26/2018 11:28:11 77.34, 20.59 75.23 2.13 42
5 03/28/2018 16:11:44 77.39, -50.19 74.43 03/28/2018 16:10:50 77.39, -50.23 74.42 1.22 54
6 03/28/2018 17:01:12 -77.36, 117.33 105.62 03/28/2018 17:01:44 -77.35, 117.24 105.63 2.81 32
7 03/30/2018 21:45:28 -77.39, 46.36 106.44 03/30/2018 21:44:23 -77.41, 46.36 106.43 2.41 65
8 03/30/2018 22:34:54 77.37,-146.06 73.54 03/30/2018 22:35:28 77.35,-146.14 73.52 2.77 34
9 04/02/2018 03:19:10 77.39, 142.94 72.72 04/02/2018 03:18:07 77.41, 142.98 72.73 2.50 63
10 04/02/2018 04:08:38 -77.37, -49.52 107.33 04/02/2018 04:09:01 -77.38, -49.59 107.31 2.41 23
11 04/04/2018 08:52:53 -77.43,-120.33 108.08 04/04/2018 08:51:40 -77.45,-120.49 108.09 4.24 73
12 04/04/2018 09:42:20 77.37, 47.05 71.83 04/04/2018 09:42:45 77.39, 47.03 71.86 2.25 25
13 04/06/2018 14:26:35 77.43, -23.78 71.08 04/06/2018 14:25:23 77.41, -23.69 71.06 2.58 72




NCC Satellite Simultaneous Nadir Overpasses (SNOs) Prediction Service
